Location: Unspecified
(47.9110°N, 14.3980°E)
Time: 16:02:20
(UTC+00:00)

CENTAUR R/B - Pass Details

Date: 06 August 2020
Orbit: 754 x 1434 km, 63.5° (Epoch: 17 September)

Event Time Altitude Azimuth Distance (km) Brightness Sun altitude
Exits shadow 22:40:21 28° 241° (WSW) 1,704 3.5 -25.4°
Maximum altitude 22:43:46 67° 316° (NW) 1,100 2.8 -25.5°
Drops below altitude 10° 22:50:59 10° 39° (NE) 3,073 5.7 -25.6°
Sets 22:53:59 0° 42° (NE) 4,143 6.4 -25.7°
